Stündliche Wetter Warud

Heute, 21 Oktober, Mittwoch

Zeit Temperatur Niederschläge Wind Luftdruck Luftfeuchtigkeit
00:00 +25°C° 0.1 mm 0 m/S 722 mmHg 79%
01:00 +24°C° 0.1 mm 0 m/S 722 mmHg 80%
02:00 +24°C° 0.1 mm 0 m/S 722 mmHg 81%
03:00 +26°C° 0 mm 1 m/S 722 mmHg 82%
04:00 +26°C° 0 mm 1 m/S 722 mmHg 82%
05:00 +25°C° 0 mm 1 m/S 722 mmHg 83%
06:00 +27°C° 0 mm 1 m/S 722 mmHg 79%
07:00 +28°C° 0 mm 1 m/S 723 mmHg 75%
08:00 +29°C° 0 mm 1 m/S 723 mmHg 71%
09:00 +30°C° 0 mm 2 m/S 723 mmHg 66%
10:00 +31°C° 0 mm 2 m/S 723 mmHg 61%
11:00 +32°C° 0 mm 2 m/S 723 mmHg 56%
12:00 +32°C° 0 mm 2 m/S 722 mmHg 56%
13:00 +34°C° 0 mm 2 m/S 721 mmHg 57%
14:00 +34°C° 0 mm 2 m/S 721 mmHg 58%
15:00 +31°C° 0.7 mm 2 m/S 721 mmHg 64%
16:00 +30°C° 0.7 mm 2 m/S 720 mmHg 70%
17:00 +29°C° 0.7 mm 2 m/S 720 mmHg 76%
18:00 +28°C° 0.1 mm 2 m/S 721 mmHg 76%
19:00 +27°C° 0.1 mm 2 m/S 721 mmHg 77%
20:00 +26°C° 0.1 mm 2 m/S 722 mmHg 77%
21:00 +26°C° 0 mm 2 m/S 722 mmHg 73%
22:00 +25°C° 0 mm 2 m/S 721 mmHg 68%
23:00 +24°C° 0 mm 2 m/S 721 mmHg 64%

Morgen, 22 Oktober, Donnerstag

Zeit Temperatur Niederschläge Wind Luftdruck Luftfeuchtigkeit
00:00 +24°C° 0 mm 2 m/S 721 mmHg 61%
01:00 +24°C° 0 mm 2 m/S 720 mmHg 58%
02:00 +23°C° 0 mm 1 m/S 720 mmHg 56%
03:00 +23°C° 0 mm 1 m/S 720 mmHg 54%
04:00 +23°C° 0 mm 1 m/S 720 mmHg 53%
05:00 +23°C° 0 mm 1 m/S 720 mmHg 51%
06:00 +24°C° 0 mm 1 m/S 721 mmHg 50%
07:00 +26°C° 0 mm 1 m/S 722 mmHg 50%
08:00 +28°C° 0 mm 1 m/S 722 mmHg 49%
09:00 +29°C° 0 mm 1 m/S 722 mmHg 45%
10:00 +31°C° 0 mm 1 m/S 722 mmHg 41%
11:00 +32°C° 0 mm 2 m/S 722 mmHg 37%
12:00 +32°C° 0 mm 2 m/S 722 mmHg 37%
13:00 +34°C° 0 mm 2 m/S 721 mmHg 37%
14:00 +34°C° 0 mm 2 m/S 721 mmHg 38%
15:00 +32°C° 0 mm 1 m/S 721 mmHg 44%
16:00 +30°C° 0 mm 1 m/S 720 mmHg 50%
17:00 +28°C° 0 mm 1 m/S 720 mmHg 57%
18:00 +27°C° 0 mm 1 m/S 721 mmHg 59%
19:00 +26°C° 0 mm 1 m/S 721 mmHg 60%
20:00 +23°C° 0 mm 0 m/S 722 mmHg 62%
21:00 +23°C° 0 mm 0 m/S 722 mmHg 62%
22:00 +23°C° 0 mm 0 m/S 721 mmHg 63%
23:00 +22°C° 0 mm 0 m/S 721 mmHg 63%

übermorgen, 23 Oktober, Freitag

Zeit Temperatur Niederschläge Wind Luftdruck Luftfeuchtigkeit
00:00 +22°C° 0 mm 0 m/S 721 mmHg 63%
01:00 +24°C° 0 mm 1 m/S 721 mmHg 64%
02:00 +24°C° 0 mm 1 m/S 720 mmHg 64%
03:00 +24°C° 0 mm 1 m/S 720 mmHg 64%
04:00 +23°C° 0 mm 1 m/S 720 mmHg 64%
05:00 +23°C° 0 mm 1 m/S 720 mmHg 63%
06:00 +25°C° 0 mm 1 m/S 721 mmHg 60%
07:00 +26°C° 0 mm 1 m/S 722 mmHg 58%
08:00 +26°C° 0 mm 0 m/S 723 mmHg 55%
09:00 +29°C° 0 mm 1 m/S 722 mmHg 50%
10:00 +31°C° 0 mm 1 m/S 722 mmHg 44%
11:00 +32°C° 0 mm 1 m/S 722 mmHg 39%
12:00 +33°C° 0 mm 1 m/S 722 mmHg 38%
13:00 +34°C° 0 mm 2 m/S 721 mmHg 38%
14:00 +34°C° 0 mm 2 m/S 721 mmHg 38%
15:00 +32°C° 0 mm 2 m/S 720 mmHg 46%
16:00 +30°C° 0 mm 2 m/S 720 mmHg 54%
17:00 +28°C° 0 mm 3 m/S 720 mmHg 63%
18:00 +27°C° 0 mm 2 m/S 721 mmHg 61%
19:00 +27°C° 0 mm 2 m/S 721 mmHg 60%
20:00 +26°C° 0 mm 1 m/S 722 mmHg 58%
21:00 +26°C° 0 mm 1 m/S 722 mmHg 58%
22:00 +25°C° 0 mm 1 m/S 722 mmHg 58%
23:00 +23°C° 0 mm 0 m/S 722 mmHg 58%

24 Oktober, Samstag

Zeit Temperatur Niederschläge Wind Luftdruck Luftfeuchtigkeit
00:00 +22°C° 0 mm 0 m/S 722 mmHg 59%
01:00 +22°C° 0 mm 0 m/S 721 mmHg 59%
02:00 +22°C° 0 mm 0 m/S 721 mmHg 60%
03:00 +24°C° 0 mm 1 m/S 721 mmHg 60%
04:00 +24°C° 0 mm 1 m/S 721 mmHg 60%
05:00 +23°C° 0 mm 1 m/S 721 mmHg 61%
06:00 +25°C° 0 mm 1 m/S 722 mmHg 59%
07:00 +26°C° 0 mm 1 m/S 722 mmHg 58%
08:00 +25°C° 0 mm 0 m/S 723 mmHg 56%
09:00 +29°C° 0 mm 1 m/S 723 mmHg 52%
10:00 +30°C° 0 mm 1 m/S 723 mmHg 48%
11:00 +32°C° 0 mm 2 m/S 723 mmHg 44%
12:00 +32°C° 0 mm 2 m/S 723 mmHg 41%
13:00 +34°C° 0 mm 2 m/S 722 mmHg 39%
14:00 +34°C° 0 mm 3 m/S 721 mmHg 37%
15:00 +31°C° 0 mm 3 m/S 721 mmHg 43%
16:00 +29°C° 0 mm 3 m/S 721 mmHg 49%
17:00 +28°C° 0 mm 3 m/S 721 mmHg 54%
18:00 +27°C° 0 mm 3 m/S 722 mmHg 51%
19:00 +26°C° 0 mm 3 m/S 722 mmHg 47%
20:00 +25°C° 0 mm 2 m/S 723 mmHg 43%
21:00 +25°C° 0 mm 2 m/S 723 mmHg 42%
22:00 +25°C° 0 mm 2 m/S 723 mmHg 42%
23:00 +24°C° 0 mm 1 m/S 723 mmHg 41%

25 Oktober, Sonntag

Zeit Temperatur Niederschläge Wind Luftdruck Luftfeuchtigkeit
00:00 +24°C° 0 mm 1 m/S 723 mmHg 42%
01:00 +23°C° 0 mm 1 m/S 723 mmHg 42%
02:00 +23°C° 0 mm 1 m/S 723 mmHg 43%
03:00 +23°C° 0 mm 1 m/S 723 mmHg 43%
04:00 +22°C° 0 mm 1 m/S 723 mmHg 43%
05:00 +22°C° 0 mm 1 m/S 723 mmHg 43%
06:00 +24°C° 0 mm 1 m/S 724 mmHg 43%
07:00 +25°C° 0 mm 1 m/S 724 mmHg 44%
08:00 +27°C° 0 mm 1 m/S 725 mmHg 44%
09:00 +28°C° 0 mm 1 m/S 725 mmHg 40%
10:00 +28°C° 0 mm 0 m/S 725 mmHg 35%
11:00 +30°C° 0 mm 0 m/S 725 mmHg 31%
12:00 +32°C° 0 mm 1 m/S 724 mmHg 30%
13:00 +32°C° 0 mm 1 m/S 724 mmHg 28%
14:00 +33°C° 0 mm 1 m/S 723 mmHg 27%
15:00 +31°C° 0 mm 2 m/S 723 mmHg 34%
16:00 +29°C° 0 mm 2 m/S 723 mmHg 41%
17:00 +26°C° 0 mm 3 m/S 723 mmHg 47%
18:00 +26°C° 0 mm 3 m/S 723 mmHg 46%
19:00 +25°C° 0 mm 2 m/S 724 mmHg 44%
20:00 +24°C° 0 mm 2 m/S 724 mmHg 42%
21:00 +24°C° 0 mm 2 m/S 724 mmHg 43%
22:00 +23°C° 0 mm 1 m/S 724 mmHg 43%
23:00 +23°C° 0 mm 1 m/S 724 mmHg 44%

26 Oktober, Montag

Zeit Temperatur Niederschläge Wind Luftdruck Luftfeuchtigkeit
00:00 +22°C° 0 mm 1 m/S 724 mmHg 44%
01:00 +22°C° 0 mm 1 m/S 724 mmHg 44%
02:00 +22°C° 0 mm 1 m/S 724 mmHg 44%
03:00 +22°C° 0 mm 1 m/S 724 mmHg 44%
04:00 +21°C° 0 mm 1 m/S 724 mmHg 44%
05:00 +20°C° 0 mm 2 m/S 724 mmHg 45%
06:00 +23°C° 0 mm 1 m/S 725 mmHg 45%
07:00 +24°C° 0 mm 1 m/S 725 mmHg 45%
08:00 +26°C° 0 mm 1 m/S 726 mmHg 45%
09:00 +28°C° 0 mm 2 m/S 726 mmHg 40%
10:00 +30°C° 0 mm 2 m/S 726 mmHg 35%
11:00 +31°C° 0 mm 3 m/S 726 mmHg 31%
12:00 +33°C° 0 mm 3 m/S 725 mmHg 31%
13:00 +33°C° 0 mm 4 m/S 724 mmHg 31%
14:00 +33°C° 0 mm 4 m/S 724 mmHg 32%
15:00 +30°C° 0 mm 3 m/S 724 mmHg 38%
16:00 +28°C° 0 mm 3 m/S 723 mmHg 44%
17:00 +26°C° 0 mm 2 m/S 723 mmHg 51%
18:00 +25°C° 0 mm 2 m/S 724 mmHg 51%
19:00 +24°C° 0 mm 2 m/S 724 mmHg 51%
20:00 +23°C° 0 mm 2 m/S 724 mmHg 51%
21:00 +23°C° 0 mm 2 m/S 724 mmHg 50%
22:00 +23°C° 0 mm 1 m/S 724 mmHg 49%
23:00 +22°C° 0 mm 1 m/S 724 mmHg 48%

27 Oktober, Dienstag

Zeit Temperatur Niederschläge Wind Luftdruck Luftfeuchtigkeit
00:00 +22°C° 0 mm 1 m/S 724 mmHg 47%
01:00 +22°C° 0 mm 1 m/S 724 mmHg 46%
02:00 +22°C° 0 mm 1 m/S 723 mmHg 45%
03:00 +21°C° 0 mm 1 m/S 723 mmHg 46%
04:00 +21°C° 0 mm 1 m/S 724 mmHg 46%
05:00 +21°C° 0 mm 1 m/S 724 mmHg 46%
06:00 +23°C° 0 mm 1 m/S 724 mmHg 46%
07:00 +24°C° 0 mm 1 m/S 725 mmHg 45%
08:00 +26°C° 0 mm 1 m/S 726 mmHg 45%
09:00 +28°C° 0 mm 1 m/S 726 mmHg 40%
10:00 +29°C° 0 mm 1 m/S 726 mmHg 36%
11:00 +31°C° 0 mm 1 m/S 726 mmHg 31%
12:00 +31°C° 0 mm 2 m/S 725 mmHg 30%
13:00 +32°C° 0 mm 2 m/S 724 mmHg 30%
14:00 +33°C° 0 mm 3 m/S 724 mmHg 29%
15:00 +30°C° 0 mm 2 m/S 724 mmHg 35%
16:00 +28°C° 0 mm 2 m/S 724 mmHg 40%
17:00 +27°C° 0 mm 1 m/S 724 mmHg 46%
18:00 +26°C° 0 mm 1 m/S 724 mmHg 47%
19:00 +25°C° 0 mm 1 m/S 724 mmHg 47%
20:00 +24°C° 0 mm 1 m/S 724 mmHg 48%
21:00 +23°C° 0 mm 1 m/S 724 mmHg 49%
22:00 +23°C° 0 mm 1 m/S 724 mmHg 49%
23:00 +23°C° 0 mm 1 m/S 724 mmHg 50%
Mehr zeigen

Wir brauchen deine Erlaubnis

Meteoprog und unser Service Anbieter werden persönliche Daten aufbewahren, so wie Cookies, Geräte Bezeichnung oder ähnliche Technologien von deinem Gerät und Prozess, so wie Persönliche Daten Inhalte und Werbungen, genauso wie social Media und den Verkehr zu analysieren.

  • Aufbewahrung und/oder Zugang zu deiner Geräte Informationen.

    Cookies, Geräte Bezeichnung oder andere Informationen, können aufbewahrt oder Zugang zu deinem Gerät erhalten, für den Grund, der oben angegeben wird.

  • Personalisierte Werbung und Inhalte, Messungen, Einblick in das Publikum und Produkt Entwicklung.

    Werbungen und Inhalte können personalisiert werden, basierend auf ein Profil. Mehr Daten können besser personalisierte Werbungen und Inhalte hinzufügen. Werbung und Inhalte können gezeigt und gemessen werden. Einblicke über das Publikum, welche die Werbung gesehen haben und den Inhalt, können abgeleitet werden. So wie Daten können genutzt werden, um es zu verbessern oder die Benutzer Erfahrung zu verbessern das System und die Software.

Wenn du “Ich stimme zu” klickst, erlaubst du uns, die Cookies zu benutzen die Geräte Bezeichnung, den Web oder ähnliche Technologien zu benutzen. Deine Settings, können in deinem Gerät bei deinem Browser geändert werden.

Für den bestimmten Zweck, berechtigten Interessen beruhen darauf, mehr als auf den Inhalt. Du kannst mehr darüber in unseren Privaten und Cookie Politik lesen.